Weather History for Volkel, Netherlands

Change the Weather History Date:

Thursday, February 27, 2014

  Actual Average Record
Temperature  
Mean Temperature 41 °F -  
Max Temperature 48 °F 48 °F 60 °F (2003)
Min Temperature 34 °F 35 °F 24 °F (2004)
Degree Days  
Heating Degree Days 24    
Moisture  
Dew Point 37 °F    
Average Humidity 85    
Maximum Humidity 100    
Minimum Humidity 52    
Precipitation  
Precipitation 0.08 in - - ()
Sea Level Pressure  
Sea Level Pressure 29.87 in    
Wind  
Wind Speed 10 mph ()    
Max Wind Speed 25 mph    
Max Gust Speed 38 mph    
Visibility 6.7 miles    
Events Rain    
Averages and records for this station are not official NWS values.
T = Trace of Precipitation, MM = Missing Value Source: Averaged Metar Reports

Daily Weather History Graph

Daily Weather History Graph

Search for Another Location

Airport:

Trip Planner

Search our weather history database for the weather conditions in past years. The results will help you decide how hot, cold, wet, or windy it might be!

Date:

Astronomy

Feb. 27, 2014 Rise Set
Actual Time 7:27 AM CET 6:13 PM CET
Civil Twilight 6:53 AM CET 6:47 PM CET
Nautical Twilight 6:14 AM CET 7:26 PM CET
Astronomical Twilight 5:35 AM CET 8:05 PM CET
Moon 5:58 AM CET (2/27) 4:11 PM CET (2/27)
Length of Visible Light 11h 53m
Length of Day
10h 46m
Waning Crescent, 5% of the Moon is Illuminated
Feb 27
Waning Crescent
Mar 1
New
Mar 8
First Quarter
Mar 16
Full
Mar 24
Last Quarter

Hourly Weather History & Observations

Time (CET) Temp. Windchill Dew Point Humidity Pressure Visibility Wind Dir Wind Speed Gust Speed Precip Events Conditions
12:00 AM 37 °F - 35 °F 87% 30.11 in 9 mi SSW 6.7 mph - -  
12:25 AM 37.4 °F 32.8 °F 35.6 °F 93% 30.09 in 6.2 mi SSW 5.8 mph - N/A   Unknown
12:55 AM 37.4 °F 33.8 °F 35.6 °F 93% 30.09 in 6.2 mi SSW 4.6 mph - N/A   Unknown
1:00 AM 37 °F - 35 °F 89% 30.11 in 8 mi SSW 4.5 mph - -   Partly Cloudy
1:25 AM 37.4 °F 33.8 °F 35.6 °F 93% 30.09 in 6.2 mi SSW 4.6 mph - N/A   Unknown
1:55 AM 37.4 °F 33.8 °F 35.6 °F 93% 30.09 in 6.2 mi SSW 4.6 mph - N/A   Unknown
2:00 AM 36 °F - 35 °F 95% 30.10 in 7 mi SSW 4.5 mph - -  
2:25 AM 37.4 °F 33.8 °F 35.6 °F 93% 30.09 in 6.2 mi SSW 4.6 mph - N/A   Unknown
2:55 AM 37.4 °F 34.9 °F 35.6 °F 93% 30.06 in 6.2 mi SSW 3.5 mph - N/A   Unknown
3:00 AM 36 °F - 36 °F 98% 30.09 in 6 mi South 2.2 mph - -   Scattered Clouds
3:25 AM 35.6 °F - 35.6 °F 100% 30.06 in 6.2 mi SSE 2.3 mph - N/A   Unknown
3:55 AM 35.6 °F 30.7 °F 33.8 °F 93% 30.06 in 5.6 mi South 5.8 mph - N/A   Mist
4:00 AM 36 °F - 35 °F 93% 30.07 in 6 mi South 6.7 mph - -   Mist
4:25 AM 35.6 °F 29.9 °F 35.6 °F 100% 30.04 in 5.6 mi South 6.9 mph - N/A   Mist
4:55 AM 35.6 °F 29.9 °F 35.6 °F 100% 30.04 in 5.6 mi South 6.9 mph - N/A   Mist
5:00 AM 36 °F - 35 °F 94% 30.06 in 6 mi South 6.7 mph - -   Mist
5:25 AM 35.6 °F 29.2 °F 35.6 °F 100% 30.04 in 5.6 mi South 8.1 mph - N/A   Mist
5:55 AM 37.4 °F 31.4 °F 35.6 °F 93% 30.04 in 6.2 mi South 8.1 mph - N/A   Unknown
6:00 AM 36 °F - 35 °F 93% 30.05 in 6 mi South 8.9 mph - -  
6:25 AM 37.4 °F 31.4 °F 33.8 °F 87% 30.04 in 6.2 mi South 8.1 mph - N/A   Unknown
6:55 AM 37.4 °F 31.4 °F 35.6 °F 93% 30.01 in 6.2 mi South 8.1 mph - N/A   Unknown
7:00 AM 37 °F - 35 °F 87% 30.04 in 6 mi South 6.7 mph - -   Partly Cloudy
7:25 AM 37.4 °F 31.4 °F 33.8 °F 87% 30.01 in 6.2 mi South 8.1 mph - N/A   Unknown
7:55 AM 37.4 °F 31.4 °F 35.6 °F 93% 30.01 in 6.2 mi South 8.1 mph - N/A   Unknown
8:00 AM 38 °F - 35 °F 84% 30.01 in 7 mi South 8.9 mph - -  
8:25 AM 39.2 °F 33.0 °F 35.6 °F 87% 29.98 in 6.2 mi SSE 9.2 mph - N/A   Scattered Clouds
8:55 AM 41.0 °F 34.7 °F 35.6 °F 81% 29.98 in 6.2 mi SSE 10.4 mph - N/A   Scattered Clouds
9:00 AM 40 °F - 36 °F 81% 29.99 in 9 mi SSE 11.2 mph - -   Partly Cloudy
9:25 AM 41.0 °F 33.9 °F 37.4 °F 87% 29.95 in 6.2 mi South 12.7 mph - N/A   Scattered Clouds
9:55 AM 42.8 °F 35.8 °F 37.4 °F 81% 29.95 in 6.2 mi South 13.8 mph - N/A   Overcast
10:00 AM 44 °F - 37 °F 69% 29.95 in 10 mi South 13.4 mph - -   Overcast
10:25 AM 44.6 °F 38.1 °F 37.4 °F 76% 29.92 in 6.2 mi South 13.8 mph - N/A   Overcast
10:55 AM 46.4 °F 40.4 °F 37.4 °F 71% 29.92 in 6.2 mi South 13.8 mph - N/A   Overcast
11:00 AM 46 °F - 38 °F 65% 29.92 in 12 mi South 11.2 mph - -   Overcast
11:25 AM 46.4 °F 39.5 °F 37.4 °F 71% 29.89 in 6.2 mi South 17.3 mph - N/A   Overcast
11:55 AM 46.4 °F 39.2 °F 37.4 °F 71% 29.86 in 6.2 mi South 18.4 mph - N/A   Mostly Cloudy
12:00 PM 48 °F - 38 °F 57% 29.88 in 13 mi South 17.9 mph - -   Mostly Cloudy
12:25 PM 48.2 °F - 37.4 °F 66% 29.86 in 6.2 mi South 17.3 mph - N/A   Mostly Cloudy
12:55 PM 48.2 °F - 35.6 °F 62% 29.83 in 6.2 mi South 19.6 mph 31.1 mph N/A   Mostly Cloudy
1:00 PM 48 °F - 36 °F 52% 29.85 in 19 mi South 17.9 mph - -   Partly Cloudy
1:25 PM 48.2 °F - 35.6 °F 62% 29.83 in 6.2 mi South 17.3 mph - N/A   Mostly Cloudy
1:43 PM 44.6 °F 35.5 °F 37.4 °F 76% 29.83 in 4.3 mi SSW 25.3 mph 38.0 mph N/A   Drizzle
1:49 PM 44.6 °F 35.9 °F 37.4 °F 76% 29.83 in 6.2 mi SSW 23.0 mph 38.0 mph N/A Rain Light Rain
1:55 PM 44.6 °F 36.1 °F 37.4 °F 76% 29.83 in 6.2 mi South 21.9 mph 33.4 mph N/A Rain Light Rain
2:00 PM 45 °F - 37 °F 66% 29.83 in 9 mi South 20.1 mph - - Rain Light Rain Showers
2:02 PM 44.6 °F 36.4 °F 37.4 °F 76% 29.83 in 6.2 mi South 20.7 mph 33.4 mph N/A Rain Light Rain
2:03 PM 44.6 °F 36.4 °F 37.4 °F 76% 29.83 in 6.2 mi South 20.7 mph - N/A Rain Light Rain
2:10 PM 44.6 °F 36.1 °F 37.4 °F 76% 29.83 in 6.2 mi South 21.9 mph - N/A Rain Light Rain
2:18 PM 44.6 °F 35.7 °F 37.4 °F 76% 29.83 in 5.6 mi SSW 24.2 mph - N/A Rain Light Rain Showers
2:25 PM 42.8 °F 34.3 °F 37.4 °F 81% 29.83 in 4.3 mi SSW 19.6 mph 33.4 mph N/A Rain Light Rain
2:44 PM 42.8 °F 34.8 °F 39.2 °F 87% 29.83 in 6.2 mi South 17.3 mph - N/A Rain Light Rain Showers
2:55 PM 42.8 °F 35.8 °F 39.2 °F 87% 29.80 in 6.2 mi South 13.8 mph - N/A   Heavy Drizzle
3:00 PM 43 °F - 39 °F 82% 29.83 in 6 mi South 13.4 mph - - Rain Heavy Drizzle
3:25 PM 42.8 °F 35.8 °F 39.2 °F 87% 29.80 in 6.2 mi South 13.8 mph - N/A Rain Light Rain
3:49 PM 42.8 °F 35.8 °F 39.2 °F 87% 29.80 in 6.2 mi South 13.8 mph - N/A   Drizzle
3:55 PM 42.8 °F 36.2 °F 39.2 °F 87% 29.80 in 6.2 mi South 12.7 mph - N/A   Light Drizzle
4:00 PM 42 °F - 39 °F 87% 29.81 in 7 mi South 15.7 mph - - Rain Drizzle
4:01 PM 42.8 °F 35.1 °F 39.2 °F 87% 29.80 in 6.2 mi South 16.1 mph 28.8 mph N/A   Drizzle
4:02 PM 42.8 °F 34.8 °F 39.2 °F 87% 29.80 in 6.2 mi South 17.3 mph 28.8 mph N/A Rain Drizzle
4:15 PM 42.8 °F 34.3 °F 39.2 °F 87% 29.77 in 6.2 mi South 19.6 mph 31.1 mph N/A Rain Light Rain
4:25 PM 42.8 °F 35.1 °F 39.2 °F 87% 29.77 in 5.6 mi South 16.1 mph - N/A Rain Light Rain
4:30 PM 42.8 °F 35.4 °F 39.2 °F 87% 29.77 in 6.2 mi South 15.0 mph - N/A Rain Light Rain
4:35 PM 41.0 °F 33.9 °F 39.2 °F 93% 29.77 in 6.2 mi South 12.7 mph - N/A   Drizzle
4:55 PM 41.0 °F 33.9 °F 39.2 °F 93% 29.77 in 6.2 mi South 12.7 mph - N/A   Overcast
4:59 PM 41.0 °F 33.9 °F 39.2 °F 93% 29.77 in 6.2 mi South 12.7 mph - N/A   Overcast
5:00 PM 42 °F - 39 °F 84% 29.79 in 28 mi South 13.4 mph - - Rain Rain
5:03 PM 42.8 °F 35.8 °F 39.2 °F 87% 29.77 in 6.2 mi South 13.8 mph - N/A   Overcast
5:25 PM 42.8 °F 35.8 °F 39.2 °F 87% 29.77 in 6.2 mi South 13.8 mph - N/A   Mostly Cloudy
5:47 PM 42.8 °F 36.2 °F 39.2 °F 87% 29.77 in 6.2 mi South 12.7 mph - N/A   Overcast
5:55 PM 42.8 °F 36.2 °F 39.2 °F 87% 29.77 in 6.2 mi South 12.7 mph - N/A   Overcast
6:00 PM 42 °F - 39 °F 83% 29.78 in 28 mi South 11.2 mph - -   Partly Cloudy
6:04 PM 42.8 °F 36.6 °F 39.2 °F 87% 29.77 in 6.2 mi South 11.5 mph - N/A   Overcast
6:13 PM 42.8 °F 36.6 °F 39.2 °F 87% 29.77 in 6.2 mi South 11.5 mph - N/A   Overcast
6:17 PM 42.8 °F 36.6 °F 39.2 °F 87% 29.77 in 6.2 mi South 11.5 mph - N/A   Overcast
6:21 PM 42.8 °F 36.2 °F 39.2 °F 87% 29.77 in 6.2 mi South 12.7 mph - N/A   Overcast
6:25 PM 42.8 °F 36.6 °F 39.2 °F 87% 29.77 in 6.2 mi South 11.5 mph - N/A   Overcast
6:32 PM 42.8 °F 36.2 °F 39.2 °F 87% 29.77 in 6.2 mi South 12.7 mph - N/A   Mostly Cloudy
6:51 PM 42.8 °F 36.6 °F 39.2 °F 87% 29.77 in 6.2 mi South 11.5 mph - N/A   Mostly Cloudy
6:55 PM 42.8 °F 36.6 °F 39.2 °F 87% 29.77 in 6.2 mi South 11.5 mph - N/A   Overcast
6:59 PM 42.8 °F 36.6 °F 39.2 °F 87% 29.77 in 6.2 mi South 11.5 mph - N/A   Overcast
7:00 PM 42 °F - 38 °F 83% 29.78 in 28 mi South 11.2 mph - -   Partly Cloudy
7:12 PM 42.8 °F 36.6 °F 39.2 °F 87% 29.77 in 6.2 mi SSW 11.5 mph - N/A   Overcast
7:21 PM 42.8 °F 36.6 °F 39.2 °F 87% 29.77 in 6.2 mi South 11.5 mph - N/A   Overcast
7:25 PM 42.8 °F 36.6 °F 37.4 °F 81% 29.77 in 6.2 mi SSW 11.5 mph - N/A   Overcast
7:31 PM 42.8 °F 36.2 °F 37.4 °F 81% 29.77 in 6.2 mi SSW 12.7 mph - N/A   Overcast
7:39 PM 41.0 °F 34.3 °F 37.4 °F 87% 29.77 in 6.2 mi SSW 11.5 mph - N/A   Overcast
7:55 PM 41.0 °F 34.7 °F 37.4 °F 87% 29.77 in 6.2 mi SSW 10.4 mph - N/A   Mostly Cloudy
8:00 PM 42 °F - 38 °F 79% 29.79 in 28 mi SSW 8.9 mph - -   Overcast
8:25 PM 41.0 °F 35.2 °F 37.4 °F 87% 29.77 in 6.2 mi SSW 9.2 mph - N/A   Scattered Clouds
8:55 PM 39.2 °F 33.6 °F 37.4 °F 93% 29.77 in 6.2 mi SSW 8.1 mph - N/A   Unknown
9:00 PM 39 °F - 36 °F 87% 29.78 in 28 mi SSW 8.9 mph - -   Scattered Clouds
9:25 PM 39.2 °F 33.6 °F 37.4 °F 93% 29.77 in 6.2 mi SSW 8.1 mph - N/A   Partly Cloudy
9:55 PM 39.2 °F 33.6 °F 37.4 °F 93% 29.77 in 6.2 mi South 8.1 mph - N/A   Overcast
10:00 PM 39 °F - 37 °F 88% 29.77 in 25 mi South 6.7 mph - -   Mostly Cloudy
10:25 PM 37.4 °F 32.1 °F 35.6 °F 93% 29.74 in 6.2 mi South 6.9 mph - N/A   Partly Cloudy
10:55 PM 37.4 °F 32.8 °F 35.6 °F 93% 29.74 in 6.2 mi South 5.8 mph - N/A   Unknown
11:00 PM 37 °F - 36 °F 92% 29.76 in 15 mi South 6.7 mph - -  
11:25 PM 37.4 °F 31.4 °F 35.6 °F 93% 29.74 in 6.2 mi South 8.1 mph - N/A   Unknown
11:55 PM 37.4 °F 32.8 °F 35.6 °F 93% 29.74 in 6.2 mi SSW 5.8 mph - N/A   Unknown